Regional Weather Roundup
Issued by NWS

Home | Current Version | Previous Version | Graphics & Text | Print | Product List | Glossary On
Versions: 1 2 3 4 5 6 7 8 9 10 11 12 13 14 15 16 17 18 19 20 21 22 23 24 25 26 27 28 29 30 31 32 33 34 35 36 37 38 39 40 41 42 43 44 45 46 47 48 49 50
000
ASUS43 KDTX 200110
RWRMI
MICHIGAN HOURLY REGIONAL WEATHER ROUNDUP
NATIONAL WEATHER SERVICE DETROIT/PONTIAC MI
800 PM EST THU JAN 19 2017

NOTE: "FAIR" INDICATES FEW OR NO CLOUDS BELOW 12,000 FEET WITH NO
SIGNIFICANT WEATHER AND/OR OBSTRUCTION TO VISIBILITY.

MIZ047>049-052>055-059>063-066>070-074>076-081>083-200200-
SOUTHEAST LOWER MICHIGAN

CITY           SKY/WX    TMP DP  RH WIND       PRES   REMARKS
ADRIAN         CLOUDY    35  33  92 E3        29.94F
ALMA           CLOUDY    32  32  99 E3        29.92F FOG
ANN ARBOR      CLOUDY    34  33  96 NE5       29.94S FOG     WCI  30
BAD AXE        CLOUDY    32  32 100 SE5       29.97R FOG     WCI  27
CARO           CLOUDY    32  32  98 SE5       29.94S FOG     WCI  28
DETROIT CITY   CLOUDY    34  33  96 SE5       29.97F FOG     WCI  30
DETROIT        CLOUDY    36  33  89 E5        29.97R FOG     WCI  32
FLINT          PTCLDY    33  31  92 SE5       29.93F WCI  29
GROSSE ILE     CLOUDY    35  33  92 CALM      29.95S FOG
HILLSDALE      CLOUDY    34  32  93 SE8       29.89F FOG     WCI  27
HOWELL         CLOUDY    34  32  92 SE6       29.92F FOG     WCI  28

CITY           SKY/WX    TMP DP  RH WIND       PRES   REMARKS
JACKSON        CLOUDY    34  31  88 SE7       29.90F FOG     WCI  28
LAMBERTVILLE   PTCLDY    37  34  89 CALM      29.93F
LANSING        PTCLDY    37  31  78 SE7       29.92F WCI  32
LAPEER         FAIR      33  32  98 SE5       29.95F FOG     WCI  28
MASON          CLOUDY    35  33  92 SE3       29.91F
MONROE         CLOUDY    36  34  95 E3        29.94S FOG
MT. CLEMENS    CLOUDY    33  33  99 SE6       29.96S FOG     WCI  28
PONTIAC        CLOUDY    33  30  88 SE5       29.92F WCI  29
PORT HOPE        N/A     33  32  96 SE8       29.95F WCI  26
PORT HURON     CLOUDY    32  32 100 S5        29.98F FOG     WCI  27
TRI CITIES     MOCLDY    33  33 100 E3        29.94S FOG
MIDLAND        FAIR      33  31  96 CALM      29.94R FOG
TROY           CLOUDY    34  32  92 SE5       29.97F FOG     WCI  30
SAGINAW HB     CLOUDY    34  32  93 CALM      29.94F FOG
$$
MIZ043>046-050>051-056>058-064>065-071>073-077>080-200200-
SOUTHWEST LOWER MICHIGAN

CITY           SKY/WX    TMP DP  RH WIND       PRES   REMARKS
BATTLE CREEK   CLOUDY    37  34  89 E5        29.88F WCI  33
BENTON HARBOR  MOCLDY    40  35  83 SE6       29.86F
BIG RAPIDS     CLOUDY    33  31  92 CALM      29.90S FOG
COLDWATER      CLOUDY    36  36 100 SE8       29.88F FOG     WCI  29
FREMONT        FAIR      33  33  99 E3        29.89F FOG
HOLLAND        CLOUDY    37  34  89 E7        29.87F WCI  32
GRAND RAPIDS   CLOUDY    36  32  85 NE7       29.88F WCI  30
IONIA          FAIR      35  33  92 E5        29.89F WCI  31
KALAMAZOO      CLOUDY    38  33  82 E5        29.87F HAZE    WCI  34
LUDINGTON        N/A     32  32 100 CALM      29.89F FOG
MARSHALL       CLOUDY    35  33  94 SE6       29.89F WCI  30
MOUNT PLEASANT MOCLDY    33  32  97 CALM      29.93S FOG
MUSKEGON       CLOUDY    35  33  92 NE6       29.89F FOG     WCI  30
SOUTH HAVEN    MOCLDY    38  36  91 E5        29.84F FOG     WCI  34
$$
MIZ016>042-200200-
NORTHERN LOWER MICHIGAN

CITY           SKY/WX    TMP DP  RH WIND       PRES   REMARKS
ALPENA         CLOUDY    35  32  88 CALM      29.92F
BEAVER ISLAND  CLOUDY    35  35  99 S6        29.90S FOG     WCI  30
BELLAIRE       CLOUDY    31  31  98 CALM      29.90F FOG
CADILLAC       CLOUDY    33  32  96 CALM      29.88R FOG
CHARLEVOIX     CLOUDY    34  34 100 CALM      29.92F FOG
FRANKFORT      CLOUDY    33  32  99 CALM      29.90S FOG
GAYLORD        FOG       34  31  88 S3        29.87F VSB 1/2
GRAYLING       CLOUDY    33  33  98 SE3       29.90S FOG
HARBOR SPRINGS CLOUDY    33  33  98 CALM      29.91S FOG
HOUGHTON LAKE  CLOUDY    32  31  96 SE3       29.91R FOG
MANISTEE       CLOUDY    32  31  96 CALM      29.90S FOG
OSCODA         CLOUDY    35  33  94 S5        29.93F FOG     WCI  31
PELLSTON       FOG       34  32  92 CALM      29.91F VSB 1/2
ROGERS CITY    CLOUDY    35  32  90 CALM      29.93F FOG
TRAVERSE CITY  CLOUDY    35  32  88 CALM      29.89F FOG
$$
MIZ007>008-015-200200-
EASTERN UPPER MICHIGAN

CITY           SKY/WX    TMP DP  RH WIND       PRES   REMARKS
KINROSS        LGT RAIN  33  32  96 SE7       29.91S VSB 3/4 WCI  27
MACKINAC ISLAN FOG       33  33 100 CALM      29.90F VSB 1/2
NEWBERRY       FOG       33  33  96 S14       29.87S VSB 1/2 WCI  24
S. S. MARIE    CLOUDY    34  32  92 SE6       29.91S FOG     WCI  29
MUNISING         N/A     32  31  96 S8        29.85F WCI  25
$$
MIZ004>006-011>014-085-200200-
CENTRAL UPPER MICHIGAN

CITY           SKY/WX    TMP DP  RH WIND       PRES   REMARKS
MANISTIQUE     FOG       32  32  99 SW12      29.88S VSB 1/4 WCI  23
ESCANABA       FOG       32  31  96 S5        29.88F VSB 1/4 WCI  27
SAWYER-GWINN   FOG       32  32 100 SW10      29.82F VSB 1/4 WCI  24
$$
MIZ001>003-009>011-084-200200-
WESTERN UPPER MICHIGAN

CITY           SKY/WX    TMP DP  RH WIND       PRES   REMARKS
IRON MOUNTAIN  FOG       32  30  92 S7        29.84R VSB 1/4 WCI  26
HOUGHTON       FOG       32  29  88 E6        29.77F VSB 1   WCI  26
COPPER HARBOR    N/A     30  29  96 SW9       29.79S WCI  22
IRONWOOD       CLEAR     43  32  65 S5        29.78R
$$

ABBREVIATIONS USED IN REMARKS
   TC - TEMPERATURE IN CELSIUS
  WCI - WIND CHILL INDEX
   HX - HEAT INDEX
  VSB - VISIBILITY





USA.gov is the U.S. government's official web portal to all federal, state and local government web resources and services.